contact:dominique.lefevre@mio.osupytheas.fr, maurice.libes@osupytheas.fr, didier.mallarino@osupytheas.fr
Project:EMSO http://www.emso-fr.org/EMSO-France
Depth: 2436.0 m
Title:EMSO Ligure Ouest : Data MII capteur AQUADOPP
Date,Latitude,Longitude,X_East,Y_North,Z_Up,Amplitude_X,Amplitude_Y,Amplitude_Z,Batterie,SoundSpeed,Heading,Pitch,Roll,Pressure,TIS,Speed,Direction
, degrees North, degrees East, m.s-1, m.s-1,m.s-1, 1, 1, 1, Volt, m.s-1, degree, degree, degree, dbar, degree_C, m.s-1, degree
2020-06-10T00:04:03,42.805,6.029,-0.053,0.018,-0.046,101.0,104.0,100.0,13.4,1505.3,324.2,-0.7,1.8,2470.524,13.31,0.055,288.8
2020-06-10T00:07:03,42.805,6.029,0.0,0.037,-0.036,103.0,105.0,100.0,13.3,1505.3,325.6,-0.7,1.8,2470.567,13.31,0.037,0.0
2020-06-10T00:10:03,42.805,6.029,-0.049,0.02,-0.031,103.0,106.0,100.0,13.4,1505.3,323.7,-0.7,1.8,2470.519,13.32,0.052,292.2
2020-06-10T00:13:03,42.805,6.029,-0.027,0.0,-0.027,103.0,105.0,100.0,13.4,1505.3,325.6,-0.7,1.8,2470.504,13.32,0.026,270.0
2020-06-10T00:16:03,42.805,6.029,-0.025,0.026,-0.031,102.0,105.0,100.0,13.4,1505.3,324.1,-0.7,1.8,2470.542,13.32,0.036,316.1
2020-06-10T00:19:03,42.805,6.029,-0.038,-0.002,-0.063,104.0,106.0,100.0,13.4,1505.3,326.9,-0.7,1.8,2470.545,13.33,0.038,267.0
2020-06-10T00:22:03,42.805,6.029,-0.026,-0.002,-0.047,103.0,105.0,100.0,13.4,1505.3,325.9,-0.7,1.8,2470.479,13.33,0.026,265.6
2020-06-10T00:25:03,42.805,6.029,-0.015,0.015,-0.018,103.0,105.0,100.0,13.4,1505.3,322.5,-0.7,1.8,2470.494,13.33,0.021,315.0
2020-06-10T00:28:03,42.805,6.029,-0.019,0.044,-0.003,104.0,105.0,100.0,13.4,1505.3,327.0,-0.7,1.8,2470.522,13.33,0.047,336.6
2020-06-10T00:31:03,42.805,6.029,-0.013,0.026,-0.031,102.0,105.0,100.0,13.4,1505.3,324.9,-0.7,1.8,2470.474,13.33,0.029,333.4
2020-06-10T00:34:03,42.805,6.029,-0.065,0.012,-0.056,100.0,106.0,102.0,13.4,1505.3,325.9,-0.7,1.8,2470.491,13.33,0.066,280.5
2020-06-10T00:37:03,42.805,6.029,-0.039,0.015,-0.033,101.0,105.0,100.0,13.3,1505.3,323.5,-0.7,1.8,2470.489,13.33,0.041,291.0
2020-06-10T00:40:03,42.805,6.029,-0.026,-0.004,-0.045,104.0,106.0,100.0,13.4,1505.3,323.8,-0.7,1.9,2470.462,13.33,0.026,261.3
2020-06-10T00:43:03,42.805,6.029,-0.028,0.0,-0.029,103.0,105.0,100.0,13.4,1505.3,326.7,-0.7,1.8,2470.455,13.33,0.028,270.0
2020-06-10T00:46:03,42.805,6.029,-0.024,0.012,-0.031,103.0,105.0,101.0,13.4,1505.3,324.7,-0.7,1.8,2470.494,13.33,0.026,296.6
2020-06-10T00:49:03,42.805,6.029,-0.057,0.002,-0.068,104.0,106.0,100.0,13.4,1505.3,327.3,-0.7,1.8,2470.504,13.33,0.057,272.0
2020-06-10T00:52:03,42.805,6.029,-0.016,0.021,-0.015,103.0,106.0,100.0,13.4,1505.3,326.2,-0.7,1.8,2470.497,13.33,0.026,322.7
2020-06-10T00:55:03,42.805,6.029,-0.016,0.014,0.005,103.0,105.0,100.0,13.4,1505.3,323.8,-0.7,1.8,2470.503,13.33,0.021,311.2
2020-06-10T00:58:03,42.805,6.029,-0.039,0.026,-0.011,102.0,105.0,100.0,13.4,1505.3,325.1,-0.7,1.8,2470.473,13.33,0.046,303.7
2020-06-10T01:04:03,42.805,6.029,-0.027,0.02,-0.03,104.0,108.0,102.0,13.4,1505.3,327.4,-0.7,1.8,2470.517,13.31,0.033,306.5
2020-06-10T01:07:03,42.805,6.029,-0.024,0.005,-0.033,102.0,107.0,101.0,13.4,1505.3,325.8,-0.7,1.8,2470.466,13.31,0.024,281.8
2020-06-10T01:10:03,42.805,6.029,-0.013,0.002,-0.031,103.0,105.0,101.0,13.4,1505.3,326.4,-0.7,1.9,2470.499,13.32,0.013,278.7
2020-06-10T01:13:03,42.805,6.029,-0.016,0.003,-0.02,102.0,105.0,100.0,13.4,1505.3,323.4,-0.7,1.8,2470.52,13.32,0.016,280.6
2020-06-10T01:16:03,42.805,6.029,-0.016,0.018,-0.032,102.0,105.0,100.0,13.4,1505.3,325.0,-0.7,1.8,2470.461,13.32,0.024,318.4
2020-06-10T01:19:03,42.805,6.029,-0.025,0.028,-0.021,103.0,107.0,101.0,13.4,1505.3,326.7,-0.7,1.9,2470.491,13.33,0.037,318.2
2020-06-10T01:22:03,42.805,6.029,-0.029,0.018,-0.029,101.0,105.0,101.0,13.4,1505.3,325.2,-0.7,1.8,2470.472,13.33,0.034,301.8
2020-06-10T01:25:03,42.805,6.029,-0.018,0.014,-0.021,102.0,105.0,101.0,13.4,1505.3,325.3,-0.7,1.8,2470.433,13.32,0.022,307.9
2020-06-10T01:28:03,42.805,6.029,-0.021,0.005,-0.047,102.0,104.0,100.0,13.4,1505.3,324.9,-0.7,1.8,2470.471,13.32,0.021,283.4
2020-06-10T01:31:03,42.805,6.029,-0.032,0.003,-0.039,102.0,105.0,101.0,13.4,1505.3,326.5,-0.7,1.8,2470.477,13.32,0.032,275.4
2020-06-10T01:34:03,42.805,6.029,-0.055,0.005,-0.028,104.0,107.0,101.0,13.4,1505.3,327.3,-0.7,1.8,2470.442,13.33,0.055,275.2
2020-06-10T01:37:03,42.805,6.029,-0.055,0.015,-0.049,103.0,104.0,101.0,13.3,1505.3,325.4,-0.7,1.8,2470.454,13.33,0.057,285.3
2020-06-10T01:40:03,42.805,6.029,-0.053,0.012,-0.037,102.0,104.0,102.0,13.4,1505.3,324.2,-0.7,1.8,2470.477,13.32,0.054,282.8
2020-06-10T01:43:03,42.805,6.029,-0.042,0.025,-0.034,102.0,105.0,99.0,13.4,1505.3,324.4,-0.7,1.8,2470.475,13.32,0.048,300.8
2020-06-10T01:46:03,42.805,6.029,-0.034,0.002,-0.044,101.0,105.0,101.0,13.4,1505.3,323.3,-0.7,1.8,2470.457,13.33,0.034,273.4
2020-06-10T01:49:03,42.805,6.029,-0.026,0.025,0.001,103.0,103.0,100.0,13.4,1505.3,325.2,-0.7,1.9,2470.455,13.33,0.036,313.9
2020-06-10T01:52:03,42.805,6.029,-0.021,0.014,-0.051,102.0,106.0,101.0,13.3,1505.3,326.2,-0.7,1.9,2470.411,13.32,0.025,303.7
2020-06-10T01:55:03,42.805,6.029,-0.025,0.006,-0.033,103.0,105.0,101.0,13.4,1505.3,328.2,-0.7,1.8,2470.437,13.32,0.025,283.5
2020-06-10T01:58:03,42.805,6.029,-0.056,0.007,-0.046,103.0,104.0,101.0,13.4,1505.3,327.4,-0.7,1.8,2470.455,13.33,0.056,277.1
2020-06-10T02:04:03,42.805,6.029,-0.034,0.01,-0.036,102.0,105.0,100.0,13.4,1505.3,326.1,-0.8,1.8,2470.47,13.31,0.035,286.4
2020-06-10T02:07:03,42.805,6.029,-0.01,0.001,-0.031,102.0,105.0,99.0,13.4,1505.3,325.1,-0.7,1.9,2470.457,13.31,0.01,275.7
2020-06-10T02:10:03,42.805,6.029,-0.027,0.007,-0.036,103.0,105.0,100.0,13.4,1505.3,325.9,-0.7,1.8,2470.45,13.32,0.027,284.5
2020-06-10T02:13:03,42.805,6.029,-0.044,-0.003,-0.036,103.0,104.0,101.0,13.3,1505.3,327.7,-0.7,1.8,2470.399,13.32,0.044,266.1
2020-06-10T02:16:03,42.805,6.029,-0.03,0.01,-0.015,103.0,105.0,100.0,13.4,1505.3,324.7,-0.7,1.8,2470.444,13.32,0.031,288.4
2020-06-10T02:22:03,42.805,6.029,-0.035,0.004,-0.053,103.0,104.0,101.0,13.4,1505.2,323.0,-0.7,1.8,2470.453,13.3,0.035,276.5
2020-06-10T02:25:03,42.805,6.029,-0.05,0.008,-0.037,102.0,107.0,99.0,13.4,1505.3,324.8,-0.7,1.8,2470.468,13.31,0.05,279.1
2020-06-10T02:28:03,42.805,6.029,-0.049,0.003,-0.058,102.0,106.0,99.0,13.4,1505.3,327.0,-0.7,1.9,2470.462,13.32,0.049,273.5
2020-06-10T02:31:03,42.805,6.029,-0.027,0.006,-0.051,104.0,105.0,100.0,13.4,1505.3,327.2,-0.7,1.8,2470.419,13.32,0.027,282.5
2020-06-10T02:34:03,42.805,6.029,-0.069,0.008,-0.032,104.0,106.0,100.0,13.4,1505.3,325.6,-0.7,1.9,2470.436,13.32,0.069,276.6
2020-06-10T02:37:03,42.805,6.029,-0.024,0.007,-0.009,103.0,105.0,100.0,13.3,1505.3,324.1,-0.7,1.8,2470.425,13.32,0.025,286.3
2020-06-10T02:40:03,42.805,6.029,-0.034,0.01,-0.007,103.0,105.0,100.0,13.3,1505.3,324.9,-0.7,1.8,2470.412,13.32,0.035,286.4
2020-06-10T02:43:03,42.805,6.029,-0.025,0.02,0.003,103.0,104.0,100.0,13.3,1505.3,328.6,-0.7,1.9,2470.425,13.32,0.032,308.7
2020-06-10T02:46:03,42.805,6.029,-0.041,0.013,-0.044,103.0,105.0,101.0,13.4,1505.3,326.8,-0.7,1.8,2470.43,13.32,0.043,287.6
2020-06-10T02:49:03,42.805,6.029,-0.056,0.016,-0.027,102.0,104.0,100.0,13.4,1505.3,326.0,-0.7,1.8,2470.436,13.32,0.058,285.9
2020-06-10T02:52:03,42.805,6.029,-0.039,0.012,-0.023,103.0,105.0,100.0,13.4,1505.3,326.8,-0.7,1.8,2470.412,13.32,0.04,287.1
2020-06-10T02:55:03,42.805,6.029,-0.032,0.022,-0.017,103.0,106.0,101.0,13.4,1505.3,328.6,-0.7,1.9,2470.409,13.32,0.038,304.5
2020-06-10T02:58:03,42.805,6.029,-0.045,-0.013,-0.019,103.0,105.0,100.0,13.4,1505.3,324.3,-0.7,1.9,2470.443,13.32,0.046,253.9
2020-06-10T03:04:03,42.805,6.029,-0.054,0.014,-0.017,105.0,104.0,100.0,13.3,1505.2,328.1,-0.8,1.8,2470.397,13.3,0.055,284.5
2020-06-10T03:07:03,42.805,6.029,-0.037,0.004,0.016,103.0,104.0,101.0,13.4,1505.3,323.3,-0.7,1.9,2470.4,13.31,0.037,276.2
2020-06-10T03:10:03,42.805,6.029,-0.064,-0.005,-0.039,104.0,104.0,101.0,13.4,1505.3,325.0,-0.7,1.8,2470.398,13.31,0.064,265.5
2020-06-10T03:13:03,42.805,6.029,-0.035,0.026,-0.011,104.0,105.0,100.0,13.4,1505.3,325.0,-0.7,1.8,2470.42,13.32,0.043,306.6
2020-06-10T03:16:03,42.805,6.029,-0.031,0.022,0.013,104.0,107.0,101.0,13.3,1505.3,327.2,-0.7,1.8,2470.404,13.32,0.038,305.4
2020-06-10T03:19:03,42.805,6.029,-0.036,0.011,-0.007,103.0,104.0,103.0,13.3,1505.3,325.6,-0.7,1.8,2470.405,13.32,0.037,287.0
2020-06-10T03:22:03,42.805,6.029,-0.051,0.02,-0.059,104.0,105.0,100.0,13.3,1505.3,326.9,-0.7,1.8,2470.417,13.32,0.054,291.4
2020-06-10T03:25:03,42.805,6.029,-0.043,0.003,-0.008,102.0,106.0,102.0,13.3,1505.3,323.8,-0.7,1.8,2470.41,13.32,0.043,274.0
2020-06-10T03:28:03,42.805,6.029,-0.008,0.006,0.006,104.0,104.0,100.0,13.4,1505.3,328.6,-0.7,1.8,2470.428,13.32,0.01,306.9
2020-06-10T03:31:03,42.805,6.029,-0.011,0.003,-0.011,104.0,106.0,101.0,13.4,1505.3,325.5,-0.7,1.8,2470.415,13.32,0.011,285.3
2020-06-10T03:34:03,42.805,6.029,-0.048,0.0,-0.027,103.0,106.0,100.0,13.3,1505.3,324.6,-0.7,1.8,2470.451,13.32,0.048,270.0
2020-06-10T03:37:03,42.805,6.029,-0.023,0.01,-0.013,103.0,104.0,102.0,13.3,1505.3,324.1,-0.7,1.8,2470.379,13.33,0.025,293.5
2020-06-10T03:43:03,42.805,6.029,-0.057,0.006,-0.03,102.0,105.0,101.0,13.4,1505.2,325.3,-0.8,1.8,2470.423,13.3,0.057,276.0
2020-06-10T03:46:03,42.805,6.029,-0.027,-0.002,-0.034,104.0,105.0,101.0,13.4,1505.3,326.7,-0.7,1.8,2470.412,13.31,0.027,265.8
2020-06-10T03:49:03,42.805,6.029,-0.033,0.01,0.004,103.0,105.0,100.0,13.4,1505.3,324.8,-0.7,1.8,2470.412,13.32,0.034,286.9
2020-06-10T03:52:03,42.805,6.029,-0.049,0.005,-0.011,102.0,106.0,101.0,13.3,1505.3,325.4,-0.7,1.8,2470.424,13.32,0.049,275.8
2020-06-10T03:55:03,42.805,6.029,-0.011,0.01,-0.024,104.0,105.0,101.0,13.3,1505.3,324.3,-0.7,1.9,2470.408,13.32,0.014,312.3
2020-06-10T03:58:03,42.805,6.029,-0.053,0.011,-0.05,103.0,105.0,101.0,13.4,1505.3,325.9,-0.7,1.8,2470.39,13.32,0.054,281.7
2020-06-10T04:04:03,42.805,6.029,-0.038,0.004,-0.022,103.0,105.0,100.0,13.4,1505.2,326.1,-0.7,1.8,2470.484,13.3,0.038,276.0
2020-06-10T04:07:03,42.805,6.029,-0.062,0.016,-0.036,103.0,106.0,101.0,13.4,1505.3,325.0,-0.7,1.8,2470.425,13.31,0.064,284.5
2020-06-10T04:10:03,42.805,6.029,-0.028,0.015,-0.03,105.0,106.0,101.0,13.4,1505.3,326.9,-0.7,1.8,2470.418,13.32,0.031,298.2
2020-06-10T04:13:03,42.805,6.029,-0.037,0.009,-0.02,103.0,105.0,101.0,13.3,1505.3,323.6,-0.7,1.8,2470.427,13.32,0.038,283.7
2020-06-10T04:16:03,42.805,6.029,-0.082,0.009,-0.059,102.0,105.0,100.0,13.3,1505.3,322.8,-0.7,1.8,2470.421,13.32,0.082,276.3
2020-06-10T04:19:03,42.805,6.029,-0.068,-0.002,-0.049,103.0,106.0,102.0,13.4,1505.3,325.6,-0.7,1.8,2470.382,13.32,0.068,268.3
2020-06-10T04:22:03,42.805,6.029,-0.044,0.007,-0.03,104.0,107.0,100.0,13.4,1505.3,327.5,-0.7,1.8,2470.373,13.32,0.044,279.0
2020-06-10T04:25:03,42.805,6.029,-0.036,0.009,-0.023,105.0,106.0,101.0,13.3,1505.3,325.5,-0.7,1.8,2470.395,13.32,0.037,284.0
2020-06-10T04:28:03,42.805,6.029,-0.047,0.016,-0.039,105.0,105.0,101.0,13.4,1505.3,327.6,-0.7,1.8,2470.338,13.32,0.049,288.8
2020-06-10T04:31:03,42.805,6.029,-0.036,0.014,-0.006,104.0,106.0,100.0,13.4,1505.3,326.0,-0.7,1.9,2470.341,13.32,0.038,291.2
2020-06-10T04:34:03,42.805,6.029,-0.036,0.0,-0.034,104.0,107.0,101.0,13.4,1505.3,324.7,-0.7,1.8,2470.351,13.32,0.036,270.0
2020-06-10T04:37:03,42.805,6.029,-0.029,0.011,-0.037,103.0,107.0,102.0,13.4,1505.3,324.9,-0.7,1.8,2470.359,13.33,0.031,290.8
2020-06-10T04:40:03,42.805,6.029,-0.025,0.018,-0.034,103.0,105.0,100.0,13.4,1505.3,325.8,-0.7,1.8,2470.368,13.33,0.03,305.8
2020-06-10T04:43:03,42.805,6.029,-0.032,0.019,-0.039,103.0,107.0,100.0,13.4,1505.3,326.0,-0.7,1.8,2470.374,13.33,0.037,300.7
2020-06-10T04:46:03,42.805,6.029,-0.035,0.017,0.005,103.0,105.0,102.0,13.4,1505.3,326.8,-0.7,1.8,2470.377,13.33,0.038,295.9
2020-06-10T04:49:03,42.805,6.029,-0.046,0.005,-0.012,105.0,106.0,101.0,13.4,1505.3,326.4,-0.7,1.8,2470.34,13.33,0.046,276.2
2020-06-10T04:52:03,42.805,6.029,-0.032,0.018,0.0,104.0,107.0,102.0,13.4,1505.3,323.5,-0.7,1.8,2470.392,13.33,0.036,299.4
2020-06-10T04:58:03,42.805,6.029,-0.046,0.011,-0.027,103.0,104.0,101.0,13.3,1505.3,324.6,-0.7,1.8,2470.367,13.31,0.047,283.4
2020-06-10T05:04:03,42.805,6.029,-0.045,0.009,-0.033,103.0,104.0,101.0,13.4,1505.2,324.9,-0.7,1.8,2470.426,13.3,0.045,281.3
2020-06-10T05:07:03,42.805,6.029,-0.061,0.023,-0.004,103.0,106.0,101.0,13.4,1505.3,327.0,-0.7,1.8,2470.372,13.31,0.065,290.7
2020-06-10T05:10:03,42.805,6.029,-0.043,0.033,-0.024,102.0,105.0,102.0,13.4,1505.3,323.3,-0.7,1.8,2470.357,13.31,0.054,307.5
2020-06-10T05:13:03,42.805,6.029,-0.016,0.037,-0.06,104.0,107.0,100.0,13.4,1505.3,328.3,-0.7,1.8,2470.461,13.32,0.04,336.6
2020-06-10T05:16:03,42.805,6.029,-0.048,0.028,-0.018,103.0,105.0,100.0,13.4,1505.3,324.5,-0.7,1.8,2470.383,13.32,0.055,300.3
2020-06-10T05:19:03,42.805,6.029,-0.04,0.012,0.008,104.0,106.0,101.0,13.4,1505.3,326.7,-0.7,1.8,2470.375,13.32,0.041,286.7
2020-06-10T05:22:03,42.805,6.029,-0.025,0.004,-0.025,104.0,105.0,101.0,13.4,1505.3,322.8,-0.7,1.8,2470.359,13.32,0.025,279.1
2020-06-10T05:25:03,42.805,6.029,-0.042,0.02,-0.033,104.0,107.0,101.0,13.3,1505.3,327.7,-0.7,1.8,2470.358,13.33,0.046,295.5
2020-06-10T05:28:03,42.805,6.029,-0.057,0.008,-0.069,104.0,106.0,102.0,13.3,1505.3,325.8,-0.7,1.8,2470.381,13.33,0.057,278.0
2020-06-10T05:31:03,42.805,6.029,-0.062,0.012,-0.03,104.0,106.0,101.0,13.3,1505.3,328.1,-0.7,1.8,2470.364,13.32,0.063,281.0
2020-06-10T05:34:03,42.805,6.029,-0.044,-0.006,-0.036,104.0,106.0,101.0,13.4,1505.3,327.1,-0.7,1.8,2470.375,13.33,0.044,262.2
2020-06-10T05:37:03,42.805,6.029,-0.036,0.012,-0.02,104.0,104.0,100.0,13.3,1505.3,323.3,-0.7,1.8,2470.355,13.33,0.037,288.4
2020-06-10T05:40:03,42.805,6.029,-0.06,0.019,-0.024,104.0,105.0,101.0,13.3,1505.3,327.2,-0.7,1.8,2470.317,13.32,0.062,287.6
2020-06-10T05:43:03,42.805,6.029,-0.036,0.003,-0.001,103.0,106.0,100.0,13.4,1505.3,326.5,-0.7,1.9,2470.393,13.33,0.036,274.8
2020-06-10T05:46:03,42.805,6.029,-0.041,0.028,-0.034,104.0,107.0,100.0,13.4,1505.3,328.2,-0.7,1.8,2470.365,13.33,0.049,304.3
2020-06-10T05:49:03,42.805,6.029,-0.018,0.02,-0.031,102.0,107.0,102.0,13.4,1505.3,326.9,-0.7,1.9,2470.299,13.33,0.026,318.0
2020-06-10T05:52:03,42.805,6.029,-0.031,-0.003,-0.039,103.0,106.0,100.0,13.3,1505.3,327.9,-0.7,1.8,2470.384,13.33,0.031,264.5
2020-06-10T05:55:03,42.805,6.029,-0.021,0.009,0.008,105.0,107.0,101.0,13.4,1505.3,324.4,-0.7,1.8,2470.352,13.33,0.022,293.2
2020-06-10T05:58:03,42.805,6.029,-0.037,0.011,-0.023,103.0,107.0,100.0,13.4,1505.3,326.1,-0.7,1.8,2470.384,13.33,0.038,286.6
2020-06-10T06:04:03,42.805,6.029,-0.034,0.013,-0.024,105.0,105.0,102.0,13.4,1505.3,324.6,-0.7,1.8,2470.384,13.31,0.036,290.9
2020-06-10T06:07:03,42.805,6.029,-0.031,0.016,-0.01,104.0,106.0,101.0,13.3,1505.3,324.9,-0.7,1.8,2470.359,13.31,0.034,297.3
2020-06-10T06:10:03,42.805,6.029,-0.029,0.018,-0.012,104.0,105.0,101.0,13.3,1505.3,327.8,-0.7,1.8,2470.374,13.32,0.034,301.8
2020-06-10T06:13:03,42.805,6.029,-0.051,0.002,-0.035,104.0,106.0,101.0,13.4,1505.3,323.3,-0.7,1.8,2470.374,13.32,0.051,272.2
2020-06-10T06:16:03,42.805,6.029,-0.038,-0.003,-0.037,102.0,106.0,101.0,13.3,1505.3,323.7,-0.7,1.8,2470.388,13.32,0.038,265.5
2020-06-10T06:19:03,42.805,6.029,-0.032,0.006,-0.012,103.0,104.0,100.0,13.3,1505.3,324.6,-0.7,1.8,2470.408,13.32,0.032,280.6
2020-06-10T06:22:03,42.805,6.029,-0.049,0.007,-0.034,103.0,104.0,101.0,13.3,1505.3,326.4,-0.7,1.8,2470.363,13.32,0.049,278.1
2020-06-10T06:25:03,42.805,6.029,-0.017,0.019,-0.024,103.0,104.0,101.0,13.3,1505.3,326.7,-0.7,1.8,2470.379,13.32,0.025,318.2
2020-06-10T06:28:03,42.805,6.029,-0.04,0.013,-0.03,102.0,107.0,100.0,13.4,1505.3,325.2,-0.7,1.9,2470.365,13.32,0.042,288.0
2020-06-10T06:31:03,42.805,6.029,-0.033,0.013,-0.034,104.0,106.0,101.0,13.4,1505.3,326.6,-0.7,1.8,2470.368,13.32,0.035,291.5
2020-06-10T06:34:03,42.805,6.029,-0.015,0.004,-0.023,103.0,105.0,102.0,13.4,1505.3,326.5,-0.7,1.8,2470.357,13.33,0.015,284.9
2020-06-10T06:37:03,42.805,6.029,-0.053,0.007,-0.021,103.0,106.0,101.0,13.4,1505.3,327.4,-0.7,1.8,2470.388,13.33,0.053,277.5
2020-06-10T06:40:03,42.805,6.029,-0.048,0.001,-0.03,103.0,106.0,102.0,13.3,1505.3,324.9,-0.7,1.8,2470.294,13.33,0.048,271.2
2020-06-10T06:43:03,42.805,6.029,-0.013,-0.008,-0.034,103.0,106.0,101.0,13.3,1505.3,323.4,-0.7,1.8,2470.336,13.33,0.015,238.4
2020-06-10T06:46:03,42.805,6.029,-0.02,0.008,-0.008,104.0,106.0,101.0,13.4,1505.3,326.7,-0.7,1.8,2470.37,13.33,0.021,291.8
2020-06-10T06:49:03,42.805,6.029,-0.02,0.009,-0.034,103.0,105.0,101.0,13.4,1505.3,323.3,-0.7,1.8,2470.36,13.33,0.021,294.2
2020-06-10T06:52:03,42.805,6.029,-0.046,0.008,0.01,104.0,106.0,101.0,13.4,1505.3,327.1,-0.7,1.8,2470.372,13.32,0.046,279.9
2020-06-10T06:55:03,42.805,6.029,-0.063,-0.007,-0.059,103.0,105.0,101.0,13.4,1505.3,324.8,-0.7,1.8,2470.379,13.32,0.063,263.7
2020-06-10T06:58:03,42.805,6.029,-0.068,0.011,-0.025,104.0,105.0,101.0,13.3,1505.3,325.8,-0.7,1.8,2470.396,13.32,0.068,279.2
2020-06-10T07:04:03,42.805,6.029,-0.022,-0.006,-0.016,104.0,107.0,102.0,13.3,1505.2,325.6,-0.7,1.8,2470.42,13.3,0.022,254.7
2020-06-10T07:07:03,42.805,6.029,-0.063,0.008,0.002,101.0,107.0,101.0,13.3,1505.3,324.9,-0.7,1.8,2470.405,13.31,0.063,277.2
2020-06-10T07:10:03,42.805,6.029,-0.047,0.008,-0.047,105.0,107.0,101.0,13.4,1505.3,324.4,-0.7,1.8,2470.397,13.32,0.047,279.7
2020-06-10T07:13:03,42.805,6.029,-0.014,0.009,-0.019,104.0,108.0,101.0,13.4,1505.3,326.5,-0.7,1.9,2470.421,13.32,0.016,302.7
2020-06-10T07:16:03,42.805,6.029,-0.02,0.005,0.008,104.0,107.0,102.0,13.4,1505.3,323.8,-0.7,1.8,2470.4,13.32,0.02,284.0
2020-06-10T07:19:03,42.805,6.029,-0.033,0.006,-0.02,105.0,106.0,101.0,13.4,1505.3,328.2,-0.8,1.8,2470.314,13.32,0.033,280.3
2020-06-10T07:22:03,42.805,6.029,-0.031,0.022,-0.012,103.0,106.0,101.0,13.4,1505.3,327.2,-0.7,1.8,2470.387,13.32,0.038,305.4
2020-06-10T07:25:03,42.805,6.029,-0.054,0.01,-0.047,103.0,106.0,102.0,13.3,1505.3,327.1,-0.7,1.8,2470.423,13.32,0.054,280.5
2020-06-10T07:28:03,42.805,6.029,-0.033,0.011,-0.012,103.0,106.0,102.0,13.4,1505.3,326.4,-0.7,1.8,2470.42,13.32,0.034,288.4
2020-06-10T07:31:03,42.805,6.029,-0.019,0.012,0.01,104.0,106.0,102.0,13.4,1505.3,325.7,-0.7,1.8,2470.377,13.32,0.022,302.3
2020-06-10T07:34:03,42.805,6.029,-0.025,0.003,0.003,103.0,105.0,101.0,13.4,1505.3,325.8,-0.7,1.8,2470.379,13.32,0.025,276.8
2020-06-10T07:37:03,42.805,6.029,-0.021,-0.009,-0.042,104.0,106.0,101.0,13.4,1505.3,326.6,-0.7,1.8,2470.364,13.32,0.022,246.8
2020-06-10T07:40:03,42.805,6.029,-0.041,0.009,-0.025,103.0,107.0,101.0,13.4,1505.3,323.0,-0.7,1.8,2470.383,13.32,0.041,282.4
2020-06-10T07:43:03,42.805,6.029,-0.067,-0.005,-0.028,104.0,106.0,102.0,13.3,1505.3,327.8,-0.7,1.8,2470.401,13.32,0.067,265.7
2020-06-10T07:46:03,42.805,6.029,-0.027,-0.007,-0.024,103.0,105.0,102.0,13.4,1505.3,326.8,-0.7,1.8,2470.39,13.32,0.027,255.5
2020-06-10T07:49:03,42.805,6.029,-0.045,0.003,-0.045,103.0,104.0,101.0,13.4,1505.3,325.4,-0.7,1.9,2470.378,13.32,0.045,273.8
2020-06-10T07:52:03,42.805,6.029,-0.043,-0.004,-0.024,104.0,104.0,101.0,13.4,1505.3,326.5,-0.7,1.8,2470.379,13.32,0.043,264.7
2020-06-10T07:55:03,42.805,6.029,-0.039,-0.001,-0.036,105.0,105.0,102.0,13.3,1505.3,322.6,-0.7,1.8,2470.368,13.32,0.039,268.5
2020-06-10T07:58:03,42.805,6.029,-0.03,-0.009,-0.029,104.0,105.0,101.0,13.3,1505.3,325.2,-0.7,1.8,2470.383,13.32,0.031,253.3
2020-06-10T08:04:03,42.805,6.029,-0.031,-0.014,-0.015,103.0,105.0,101.0,13.4,1505.2,326.6,-0.7,1.8,2470.419,13.3,0.034,245.7
2020-06-10T08:07:03,42.805,6.029,-0.029,0.011,-0.021,103.0,106.0,101.0,13.3,1505.3,323.1,-0.8,1.9,2470.411,13.31,0.031,290.8
2020-06-10T08:10:03,42.805,6.029,-0.018,-0.008,-0.012,104.0,106.0,101.0,13.4,1505.3,327.1,-0.7,1.9,2470.405,13.31,0.019,246.0
2020-06-10T08:13:03,42.805,6.029,-0.023,0.005,-0.002,104.0,105.0,101.0,13.4,1505.3,325.3,-0.7,1.8,2470.392,13.32,0.023,282.3
2020-06-10T08:16:03,42.805,6.029,-0.061,0.004,-0.017,104.0,104.0,101.0,13.4,1505.3,323.9,-0.7,1.8,2470.406,13.32,0.061,273.7
2020-06-10T08:19:03,42.805,6.029,-0.047,-0.004,-0.023,103.0,106.0,102.0,13.4,1505.3,327.7,-0.7,1.8,2470.404,13.32,0.047,265.1
2020-06-10T08:22:03,42.805,6.029,-0.028,-0.011,-0.029,104.0,105.0,100.0,13.3,1505.3,325.2,-0.7,1.8,2470.416,13.32,0.03,248.6
2020-06-10T08:25:03,42.805,6.029,-0.032,0.0,-0.004,104.0,105.0,101.0,13.4,1505.3,324.8,-0.7,1.8,2470.318,13.32,0.032,270.0
2020-06-10T08:28:03,42.805,6.029,-0.048,0.038,0.013,104.0,104.0,100.0,13.4,1505.3,324.7,-0.7,1.9,2470.423,13.32,0.061,308.4
2020-06-10T08:31:03,42.805,6.029,-0.03,0.001,-0.004,105.0,106.0,101.0,13.4,1505.3,323.3,-0.7,1.8,2470.407,13.32,0.03,271.9
2020-06-10T08:34:03,42.805,6.029,-0.017,-0.004,-0.036,104.0,106.0,101.0,13.4,1505.3,324.1,-0.7,1.8,2470.43,13.32,0.017,256.8
2020-06-10T08:37:03,42.805,6.029,-0.015,0.012,-0.001,104.0,106.0,102.0,13.4,1505.3,323.0,-0.7,1.8,2470.43,13.33,0.019,308.7
2020-06-10T08:40:03,42.805,6.029,-0.044,0.007,-0.01,105.0,105.0,101.0,13.4,1505.3,325.3,-0.7,1.8,2470.39,13.32,0.044,279.0
2020-06-10T08:43:03,42.805,6.029,-0.05,0.002,-0.018,103.0,106.0,101.0,13.4,1505.3,327.6,-0.7,1.8,2470.406,13.32,0.05,272.3
2020-06-10T08:46:03,42.805,6.029,-0.02,0.0,-0.024,104.0,105.0,100.0,13.4,1505.3,325.7,-0.7,1.8,2470.403,13.32,0.02,270.0
2020-06-10T08:49:03,42.805,6.029,-0.039,0.002,-0.037,104.0,105.0,101.0,13.4,1505.3,325.7,-0.7,1.9,2470.393,13.32,0.039,272.9
2020-06-10T08:52:03,42.805,6.029,-0.012,0.0,-0.011,104.0,105.0,101.0,13.4,1505.3,328.2,-0.7,1.8,2470.425,13.32,0.012,270.0
2020-06-10T08:55:03,42.805,6.029,-0.059,0.004,-0.03,104.0,105.0,102.0,13.4,1505.3,326.9,-0.7,1.8,2470.441,13.32,0.059,273.9
2020-06-10T08:58:03,42.805,6.029,-0.033,-0.006,-0.02,104.0,106.0,101.0,13.4,1505.3,327.9,-0.7,1.8,2470.4,13.32,0.033,259.7
2020-06-10T09:04:03,42.805,6.029,-0.046,0.012,-0.04,104.0,106.0,101.0,13.3,1505.2,325.6,-0.7,1.8,2470.488,13.3,0.047,284.6
2020-06-10T09:07:03,42.805,6.029,-0.03,-0.003,-0.021,103.0,107.0,101.0,13.4,1505.3,324.2,-0.7,1.8,2470.464,13.31,0.03,264.3
2020-06-10T09:10:03,42.805,6.029,-0.035,0.005,-0.036,104.0,105.0,101.0,13.4,1505.3,327.6,-0.7,1.8,2470.426,13.32,0.035,278.1
2020-06-10T09:13:03,42.805,6.029,-0.046,0.001,-0.047,103.0,106.0,102.0,13.4,1505.3,323.5,-0.7,1.8,2470.471,13.32,0.046,271.2
2020-06-10T09:16:03,42.805,6.029,-0.071,-0.002,-0.026,103.0,106.0,100.0,13.4,1505.3,327.4,-0.7,1.9,2470.451,13.32,0.071,268.4
2020-06-10T09:19:03,42.805,6.029,-0.036,-0.009,-0.024,104.0,105.0,102.0,13.4,1505.3,326.9,-0.7,1.8,2470.434,13.32,0.037,256.0
2020-06-10T09:22:03,42.805,6.029,-0.057,0.004,-0.049,103.0,105.0,101.0,13.4,1505.3,323.9,-0.7,1.8,2470.427,13.32,0.057,274.0
2020-06-10T09:25:03,42.805,6.029,-0.034,-0.007,0.012,103.0,105.0,101.0,13.4,1505.3,325.7,-0.7,1.8,2470.427,13.32,0.034,258.4
2020-06-10T09:28:03,42.805,6.029,-0.034,-0.007,-0.038,103.0,105.0,102.0,13.4,1505.3,326.6,-0.7,1.9,2470.372,13.32,0.034,258.4
2020-06-10T09:31:03,42.805,6.029,-0.057,0.025,-0.021,104.0,106.0,102.0,13.4,1505.3,325.9,-0.7,1.8,2470.427,13.32,0.062,293.7
2020-06-10T09:34:03,42.805,6.029,-0.022,-0.002,-0.022,104.0,105.0,101.0,13.4,1505.3,327.5,-0.6,1.8,2470.448,13.32,0.022,264.8
2020-06-10T09:37:03,42.805,6.029,-0.066,-0.002,-0.051,104.0,105.0,101.0,13.3,1505.3,324.9,-0.7,1.8,2470.399,13.32,0.066,268.3
2020-06-10T09:40:03,42.805,6.029,-0.034,-0.004,-0.037,105.0,104.0,101.0,13.4,1505.3,323.9,-0.7,1.8,2470.402,13.32,0.034,263.3
2020-06-10T09:43:03,42.805,6.029,-0.035,0.02,-0.013,105.0,106.0,101.0,13.3,1505.3,326.0,-0.7,1.8,2470.388,13.32,0.04,299.7
2020-06-10T09:46:03,42.805,6.029,-0.059,-0.004,-0.026,104.0,104.0,102.0,13.4,1505.3,325.0,-0.7,1.8,2470.412,13.32,0.059,266.1
2020-06-10T09:49:03,42.805,6.029,-0.01,0.005,0.002,105.0,105.0,102.0,13.4,1505.3,326.5,-0.7,1.9,2470.373,13.32,0.011,296.6
2020-06-10T09:52:03,42.805,6.029,-0.035,-0.011,-0.026,104.0,106.0,101.0,13.4,1505.3,323.2,-0.7,1.8,2470.411,13.32,0.036,252.6
2020-06-10T09:55:03,42.805,6.029,-0.038,-0.007,0.002,104.0,105.0,101.0,13.3,1505.3,328.0,-0.7,1.8,2470.429,13.32,0.038,259.6
2020-06-10T09:58:03,42.805,6.029,-0.037,0.01,-0.047,104.0,105.0,102.0,13.3,1505.3,326.5,-0.7,1.8,2470.425,13.32,0.038,285.1
2020-06-10T10:04:03,42.805,6.029,-0.022,0.0,-0.009,104.0,106.0,100.0,13.4,1505.2,324.8,-0.7,1.8,2470.458,13.3,0.022,270.0